Terminal Aerodrome Forecast
Issued by NWS

Home | Current Version | Previous Version | Text Only | Print | Product List | Glossary On
Versions: 1 2 3 4 5 6 7 8 9 10 11 12 13 14
000
FTAK31 PAJN 291029 AAA
TAFAPG
TAF AMD
PAPG 291029Z 2910/3006 00000KT P6SM VCSH OVC060
     FM291800 05005KT P6SM VCSH SCT015 BKN025 OVC040
     FM300000 04005KT 6SM -SHRA SCT015 OVC025
      AMD LTD TO CLD VIS AND WIND 2906/2915=

USA.gov is the U.S. government's official web portal to all federal, state and local government web resources and services.